Showing default

QIANFAN-54, 62255

Orbit data source: Space-Track

QIANFAN-54, 62255 is a Chinese payload satellite in LEO that was launched on Thu, 05 Dec 2024 UTC via a CHANG ZHENG 6A launch vehicle from the Taiyaun Space Center, China (TSC). Payload-class satellites include a variety of spacecraft equipped with specific instruments for various scientific and technological missions. These include communications satellites like Starlink; space stations such as the ISS; scientific satellites like the Hubble; Earth observation satellites from companies like Planet Labs, Umbra, and HawkEye 360; GPS; miniature CubeSats for education and research; and military/defense satellites.

Loading next visibility...
Identifier
62255, 2024-232U
Orbit
LEO
Country
Flag of CNCN / PRC
Related business
Manufacturer
SECM
Mission
Operational Commercial Communications
Bus & Motor
QIANFAN, Unknown motor
Mass
267 kg wet, ~267 kg dry
Launch date (UTC)
2024-12-05 (2 years ago)
Launch vehicle
CHANG ZHENG 6A
Launch site
Taiyaun Space Center, China (TSC)
Object type
Payload
Rocket body
Debris
Shape & HBR
Box + 1 Pan, 5.0 m
Radar Cross Section
13.200 m², Large (>1 m²)

Expand to show TLE details & history
Last TLE update: 9 hours ago

TLE from 9 hours ago
0 QIANFAN-54
1 62255U 24232U   26246.82126907  .00000083  00000-0  10979-3 0  9998
2 62255  89.0136  14.2664 0002908 149.3123 210.8199 13.51027111135207
Epoch: 2026-09-03T19:42Z
TLE epoch observation values (Epoch: 2026-09-03T19:42:37.647Z)
Latitude
-0°
Longitude
95.65559°
Altitude
1,073.296 km
Speed
7.314 km/s
True Right ascension
00h 57m 03s
True Declination
0° 00' 00"
Sunlit
Object was in full shadow at epoch
Visualization orbit readout
Latitude
Unknown
Longitude
Unknown
Altitude
Unknown
Speed
Unknown
Apparent Right ascension
Unknown
Apparent Declination
Unknown
Sunlit
N/A
Visualization observer readout
Local Sidereal Time
20:52:47
Azimuth
Unknown
Elevation
Unknown
Doppler factor
Unknown
Orbital elements
Apogee altitude
1,067.698 km
Perigee altitude
1,063.368 km
Semi-major axis
7,443.67 km
Eccentricity
0.00029
Inclination
89.0136°
RAAN
14.2664°
Arg. of periapsis
149.3123°
True anomaly
210.80283°
Mean anomaly
210.8199°
Eccentric anomaly
210.81137°
Mean motion
3.37958 °/min
Orbital period
106.52 mins
BSTAR
0.00010979
Loading maneuver chart data...
Computing Atmospheric mass density...
Loading historical data...
Loading historical data...
Loading historical data...
Loading historical data...
Loading historical data...
Loading historical data...
Loading historical data...

Documentation

Showing up to 5 results
|